Simultaneous Nadir Overpasses (SNOs) Predictions

Prediction of SNOs between GOES-16 and NOAA-19 Satellite Orbit:

Table of predicted SNOs for the next 14.0 days since TLE Epoch: 9/9/2023
Index Date Time (GOES-16) GOES-16 Lat,Lon NOAA-19 Lat,Lon Distance(km) Time Diff (sec)
1 09/09/2023 13:34:32 -0.03, -75.22 -0.77, -71.96 372.26 80
2 09/12/2023 01:51:56 0.04, -75.22 -0.34, -76.73 172.45 80
3 09/13/2023 01:42:32 0.04, -75.23 0.37, -73.79 164.42 80
4 09/15/2023 14:02:28 -0.04, -75.28 0.71, -78.53 370.77 80
5 09/16/2023 13:50:23 -0.04, -75.30 0.01, -75.59 33.50 80
6 09/17/2023 13:35:38 -0.04, -75.31 -0.63, -72.64 303.99 80
7 09/20/2023 01:55:39 0.04, -75.33 -0.44, -77.41 236.64 80
8 09/21/2023 01:46:14 0.03, -75.35 0.22, -74.46 101.10 80
9 09/22/2023 01:34:09 0.03, -75.36 0.89, -71.51 438.80 80
